Regional Weather Roundup
Issued by NWS

Home | Current Version | Previous Version | Graphics & Text | Print | Product List | Glossary On
Versions: 1 2 3 4 5 6 7 8 9 10 11 12 13 14 15 16 17 18 19 20 21 22 23 24 25 26 27 28 29 30 31 32 33 34 35 36 37 38 39 40 41 42 43 44 45 46 47 48 49 50
000
ASUS43 KLMK 181110
RWRKY
KENTUCKY REGIONAL WEATHER ROUNDUP
NATIONAL WEATHER SERVICE LOUISVILLE KY
600 AM EST THU DEC 18 2014

NOTE "FAIR" INDICATES FEW OR NO CLOUDS BELOW 12,000 FEET
WITH NO SIGNIFICANT WEATHER AND/OR OBSTRUCTIONS TO VISIBILITY.

KYZ001>023-026-027-061>063-070>075-181200-
WESTERN AND SOUTH CENTRAL KENTUCKY

CITY           SKY/WX    TMP DP  RH WIND       PRES   REMARKS
PADUCAH        CLOUDY    33  31  92 NE6       30.25S WCI  28
HENDERSON      CLOUDY    30  25  80 E6        30.26F WCI  24
OWENSBORO      CLOUDY    30  26  85 MISG      30.28S
HOPKINSVILLE   DRIZZLE   32  28  86 E5        30.25F WCI  27
BOWLING GREEN  CLOUDY    31  25  78 N3        30.28R
GLASGOW        CLOUDY    30  26  85 E3        30.24S
$$

KYZ024-025-028>034-038-045-046-053-181200-
NORTH CENTRAL KENTUCKY

CITY           SKY/WX    TMP DP  RH WIND       PRES   REMARKS
LOUISVILLE/SDF CLOUDY    30  22  72 NE5       30.27S WCI  25
LOUISVILLE/LOU CLOUDY    29  22  75 N3        30.28R
FORT KNOX      CLOUDY    28  23  80 NE3       30.25R
$$

KYZ035>037-039>044-047>052-055>060-089>105-181200-
NORTHEAST KENTUCKY

CITY           SKY/WX    TMP DP  RH WIND       PRES   REMARKS
LEXINGTON      CLOUDY    28  22  78 NE7       30.23F WCI  21
COVINGTON      CLOUDY    26  17  68 NE3       30.25F
FRANKFORT      CLOUDY    28  21  75 CALM      30.23F
$$

KYZ054-064>069-076>088-106>120-181200-
SOUTHEAST KENTUCKY

CITY           SKY/WX    TMP DP  RH WIND       PRES   REMARKS
JACKSON        CLOUDY    28  23  81 CALM      30.21F
LONDON         CLOUDY    28  24  85 N3        30.22S
SOMERSET       CLOUDY    28  28 100 CALM      30.25F
MIDDLESBORO    MOCLDY    28  27  96 CALM      30.24R
MONTICELLO     MIX PCPN  29  27  92 CALM      30.26F
$$



USA.gov is the U.S. government's official web portal to all federal, state and local government web resources and services.